Regional Weather Roundup
Issued by NWS

Home | Current Version | Previous Version | Text Only | Print | Product List | Glossary On
Versions: 1 2 3 4 5 6 7 8 9 10 11 12 13 14 15 16 17 18 19 20 21 22 23 24 25 26 27 28 29 30 31 32 33 34 35 36 37 38 39 40 41 42 43 44 45 46 47 48 49 50
000
ASUS43 KMKX 270021
RWRWI

WISCONSIN REGIONAL WEATHER ROUNDUP
NATIONAL WEATHER SERVICE MILWAUKEE/SULLIVAN WI
600 PM CST MON JAN 26 2015

NOTE: "FAIR" INDICATES FEW OR NO CLOUDS BELOW 12,000 FEET WITH NO
SIGNIFICANT WEATHER AND/OR OBSTRUCTIONS TO VISIBILITY.

WIZ001-002-006>008-014>016-023>028-270100-
NORTHWEST WISCONSIN

CITY           SKY/WX    TMP DP  RH WIND       PRES   REMARKS
SUPERIOR ARPT  CLOUDY    28  28  96 CALM      29.84R
6HR MIN TEMP:  26; 6HR MAX TEMP:  30;

ASHLAND        CLOUDY    25  22  88 CALM      29.84R
6HR MIN TEMP:  24; 6HR MAX TEMP:  26; 6HR PCP:  0.01;

HAYWARD        CLOUDY    25  22  88 N5        29.81R WCI  19
6HR MIN TEMP:  22; 6HR MAX TEMP:  26; 6HR PCP: TRACE;

SIREN          CLOUDY    34  33  96 NW6       29.83R WCI  29
6HR MIN TEMP:  29; 6HR MAX TEMP:  34; 6HR PCP:  0.03;

CUMBERLAND     LGT SNOW  28  27  93 CALM      29.81R
RICE LAKE      MIX PCPN  27  25  93 CALM      29.83R
6HR MIN TEMP:  23; 6HR MAX TEMP:  27;

CHETEK         MIX PCPN  26  25  96 CALM      29.82R
6HR MIN TEMP:  22; 6HR MAX TEMP:  26;

LADYSMITH      CLOUDY    24  23  94 CALM      29.82R
6HR MIN TEMP:  22; 6HR MAX TEMP:  24;

EAU CLAIRE     CLOUDY    27  24  89 CALM      29.82R
6HR MIN TEMP:  24; 6HR MAX TEMP:  27; 6HR PCP:  0.01;

MENOMONIE      LGT SNOW  30  29  95 CALM      29.82R
6HR MIN TEMP:  27; 6HR MAX TEMP:  30; 6HR PCP:  0.01;

NEW RICHMOND   CLOUDY    36  31  82 N5        29.82R WCI  32
6HR MIN TEMP:  34; 6HR MAX TEMP:  38; 6HR PCP:  0.03;

OSCEOLA        CLOUDY    38  32  77 NW7       29.85R WCI  33
6HR MIN TEMP:  36; 6HR MAX TEMP:  40;

$$

WIZ003>005-009-010-017-018-270100-
NORTH CENTRAL WISCONSIN

CITY           SKY/WX    TMP DP  RH WIND       PRES   REMARKS
MANITOWISH WTR FLURRIES  19  17  91 S7        29.79R WCI  10
6HR MIN TEMP:  17; 6HR MAX TEMP:  19;

ARBOR VITAE    LGT SNOW  22  19  89 S3        29.79S
6HR MIN TEMP:  19; 6HR MAX TEMP:  22; 6HR PCP:  0.02;

WOODRUFF       LGT SNOW  22  19  89 S3        29.79S
6HR MIN TEMP:  19; 6HR MAX TEMP:  22; 6HR PCP:  0.02;

RHINELANDER    LGT SNOW  19  16  88 SE3       29.81R FOG
6HR MIN TEMP:  17; 6HR MAX TEMP:  19; 6HR PCP:  0.03;

EAGLE RIVER    FLURRIES  20  16  84 CALM      29.79S
6HR MIN TEMP:  18; 6HR MAX TEMP:  21;

LAND O LAKES   LGT SNOW  20  18  90 SE5       29.80S WCI  14
6HR MIN TEMP:  20; 6HR MAX TEMP:  22;

PHILLIPS       LGT SNOW  20  19  93 CALM      29.79R
6HR MIN TEMP:  19; 6HR MAX TEMP:  21;

TOMAHAWK       LGT SNOW  19  17  92 CALM      29.82R
6HR MIN TEMP:  17; 6HR MAX TEMP:  19;

MEDFORD        LGT SNOW  20  19  94 SE3       29.80R
6HR MIN TEMP:  18; 6HR MAX TEMP:  21;

MERRILL        FLURRIES  20  19  92 CALM      29.82R
6HR MIN TEMP:  18; 6HR MAX TEMP:  21; 6HR PCP:  0.01;

$$

WIZ029-030-035-036-043>047-270100-
CENTRAL WISCONSIN

CITY           SKY/WX    TMP DP  RH WIND       PRES   REMARKS
WAUSAU         CLOUDY    21  18  88 SE6       29.82R WCI  13
6HR MIN TEMP:  18; 6HR MAX TEMP:  21; 6HR PCP:  0.02;

MOSINEE        FLURRIES  21  21 100 SE3       29.84R
MARSHFIELD     CLOUDY    23  20  88 S6        29.81R WCI  16
6HR MIN TEMP:  20; 6HR MAX TEMP:  23; 6HR PCP:  0.01;

STEVENS POINT  CLOUDY    20  19  93 S5        29.84R WCI  14
6HR MIN TEMP:  18; 6HR MAX TEMP:  20; 6HR PCP:  0.03;

WAUPACA        MIX PCPN  26  23  89 SE3       29.86S
6HR MIN TEMP:  23; 6HR MAX TEMP:  26; 6HR PCP:  0.01;

WAUTOMA        CLOUDY    24  23  96 S5        29.86R WCI  18
6HR MIN TEMP:  22; 6HR MAX TEMP:  24; 6HR PCP: TRACE;

WISC RAPIDS    FRZ RAIN  23  20  88 SE3       29.85R FOG
6HR MIN TEMP:  21; 6HR MAX TEMP:  23; 6HR PCP:  0.02;

CAMP DOUGLAS   LGTSLEET  25  25 100 SE2       29.83R FOG
                                      6HR PCP: TRACE;

$$

WIZ011>013-019>022-031-037>040-048>050-270100-
NORTHEAST WISCONSIN

CITY           SKY/WX    TMP DP  RH WIND       PRES   REMARKS
ANTIGO         CLOUDY    19  18  96 SE5       29.82R WCI  13
6HR MIN TEMP:  16; 6HR MAX TEMP:  19;

SHAWANO        LGT SNOW  26  22  84 CALM      29.88R
6HR MIN TEMP:  24; 6HR MAX TEMP:  27;

OCONTO         CLOUDY    25  22  87 CALM      29.89R
6HR MIN TEMP:  23; 6HR MAX TEMP:  26;

STURGEON BAY   CLOUDY    25  18  74 SE8       29.92R WCI  16
6HR MIN TEMP:  25; 6HR MAX TEMP:  25;

GREEN BAY      CLOUDY    25  20  81 SE6       29.88R WCI  18
6HR MIN TEMP:  24; 6HR MAX TEMP:  26; 6HR PCP:  0.02;

MANITOWOC      CLOUDY    27  23  85 S10       29.89S WCI  17
6HR MIN TEMP:  27; 6HR MAX TEMP:  28;

APPLETON       LGT SNOW  25  19  80 SE8       29.87R WCI  16
CLINTONVILLE   CLOUDY    25  21  86 S5        29.87R WCI  19
OSHKOSH        CLOUDY    24  20  84 SE7       29.86R WCI  16
6HR MIN TEMP:  23; 6HR MAX TEMP:  25; 6HR PCP:  0.05;

$$

WIZ032>034-041-042-053>061-270100-
SOUTHWEST WISCONSIN

CITY           SKY/WX    TMP DP  RH WIND       PRES   REMARKS
LA CROSSE      CLOUDY    30  26  85 S5        29.84R WCI  25
6HR MIN TEMP:  26; 6HR MAX TEMP:  30; 6HR PCP: TRACE;

SPARTA         CLOUDY    27  26  97 CALM      29.84R
6HR MIN TEMP:  24; 6HR MAX TEMP:  27;

VIROQUA        CLOUDY    26  26 100 S5        29.81R WCI  20
6HR MIN TEMP:  23; 6HR MAX TEMP:  26;

BOSCOBEL       CLOUDY    27  24  89 NE3       29.85R FOG
6HR MIN TEMP:  24; 6HR MAX TEMP:  27; 6HR PCP: TRACE;

PRAIRIE DU CHI CLOUDY    29  25  86 E3        29.85R FOG
6HR MIN TEMP:  26; 6HR MAX TEMP:  29;

PLATTEVILLE    CLOUDY    26  25  96 E5        29.83R WCI  20
6HR MIN TEMP:  22; 6HR MAX TEMP:  26;

$$

WIZ056-057-062-063-064-067-068-270100-
SOUTH CENTRAL WISCONSIN

CITY           SKY/WX    TMP DP  RH WIND       PRES   REMARKS
REEDSBURG      CLOUDY    24  22  94 CALM      29.84R
6HR MIN TEMP:  21; 6HR MAX TEMP:  24;

BARABOO/DELLS  CLOUDY    23  21  92 S5        29.84R WCI  16
6HR MIN TEMP:  20; 6HR MAX TEMP:  23;

LONE ROCK      LGT SNOW  25  23  92 E6        29.86R FOG     WCI  18
6HR MIN TEMP:  23; 6HR MAX TEMP:  25; 6HR PCP: TRACE;

MINERAL POINT  CLOUDY    27  25  93 SE5       29.82R FOG     WCI  21
MADISON        LGT SNOW  24  22  91 S8        29.85R FOG     WCI  15
6HR MIN TEMP:  20; 6HR MAX TEMP:  26; 6HR PCP:  0.03;

MIDDLETON      CLOUDY    25  24  93 S6        29.85R WCI  18
6HR MIN TEMP:  22; 6HR MAX TEMP:  25;

WATERTOWN      MIX PCPN  24  24 100 S6        29.86R WCI  17
6HR MIN TEMP:  24; 6HR MAX TEMP:  25;

MONROE         CLOUDY    25  23  93 S7        29.83S FOG     WCI  17
JANESVILLE     CLOUDY    27  25  93 S6        29.86R FOG     WCI  20
$$

WIZ051-052-058>065-066-070>072-270100-
SOUTHEAST WISCONSIN

CITY           SKY/WX    TMP DP  RH WIND       PRES   REMARKS
MILWAUKEE      LGT SNOW  25  20  81 S5        29.90R WCI  19
6HR MIN TEMP:  25; 6HR MAX TEMP:  28; 6HR PCP:  0.01;

WAUKESHA       CLOUDY    23  19  86 SE7       29.88R WCI  15
MILWAUKEE/TIMM FLURRIES  25  19  80 SE7       29.88R WCI  17
RACINE         LGT SNOW  26  21  81 S5        29.91R WCI  20
6HR MIN TEMP:  26; 6HR MAX TEMP:  28; 6HR PCP: TRACE;

BURLINGTON     LGT SNOW  23  22  96 SE5       29.87S WCI  17
6HR MIN TEMP:  23; 6HR MAX TEMP:  26;

KENOSHA        CLOUDY    26  21  81 S5        29.89R WCI  20
6HR MIN TEMP:  26; 6HR MAX TEMP:  28; 6HR PCP: TRACE;

FOND DU LAC    LGT SNOW  24  21  88 SE7       29.87R VSB 3/4 WCI  16
6HR MIN TEMP:  24; 6HR MAX TEMP:  25; 6HR PCP:  0.02;

SHEBOYGAN      CLOUDY    26  20  77 S6        29.88R WCI  19
6HR MIN TEMP:  25; 6HR MAX TEMP:  27; 6HR PCP: TRACE;

WEST BEND      FLURRIES  25  21  86 SE3       29.87R
JUNEAU         MIX PCPN  24  23  95 SE6       29.87R WCI  17
6HR MIN TEMP:  23; 6HR MAX TEMP:  24;

$$

LSZ147-162-270100-
LAKE SUPERIOR

STATION/POSITION TIME  TEMP    WIND        PRES    WAVE
                       AIR SEA DIR/SP/G            HT/PER
                 (UTC) (F)     (DEG/KT/KT) (MB)    (FT/S)
DEVILS ISLAND    0000   26     350/  4/  4 1011.8R
PORT WING        2340   28      10/  4/  5 1010.8R
SAXON HARBOR     2300   25        CALM     1009.5R
$$

LMZ867-665-643>646-270100-
LAKE MICHIGAN

STATION/POSITION TIME  TEMP    WIND        PRES    WAVE



USA.gov is the U.S. government's official web portal to all federal, state and local government web resources and services.